Location: Columbia
(38.9520°N, 92.3340°W)
Time: 17:24:06
(UTC-05:00)

Iridium 22 - Visible Passes

Search period start: 23 May 2017 00:00
Search period end: 02 June 2017 00:00
Orbit: 776 x 779 km, 86.4° (Epoch: 22 May)

Date Brightness Start Highest point End Pass type
(mag) Time Alt. Az. Time Alt. Az. Time Alt. Az.
23 May 7.3 01:59:34 22° E 02:00:28 23° E 02:04:28 10° NNE visible
23 May 6.1 03:40:02 35° WSW 03:40:55 38° W 03:45:46 10° NNW visible
24 May 7.9 01:26:13 11° E 01:27:18 12° ENE 01:29:12 10° NE visible
24 May 5.4 03:06:41 64° SW 03:07:18 72° W 03:12:31 10° N visible
25 May 5.7 02:33:20 58° ESE 02:33:48 61° E 02:38:57 10° N visible
25 May 7.4 04:13:49 13° W 04:14:58 14° WNW 04:17:43 10° NW visible
26 May 6.7 01:59:58 32° E 02:00:26 32° E 02:05:02 10° NNE visible
26 May 6.7 03:40:27 25° W 03:41:07 26° W 03:45:29 10° NNW visible
27 May 7.5 01:26:36 17° E 01:27:11 18° E 01:30:34 10° NE visible
27 May 5.8 03:07:04 48° W 03:07:26 48° W 03:12:29 10° N visible
28 May 5.4 02:33:42 84° S 02:33:52 89° E 02:39:07 10° N visible
29 May 6.1 02:00:18 47° E 02:00:25 47° E 02:05:25 10° NNE visible
29 May 7.1 03:40:47 18° W 03:41:23 18° WNW 03:44:58 10° NNW visible
30 May 7.0 01:26:54 26° E 01:27:06 26° E 01:31:19 10° NNE visible
30 May 6.4 03:07:23 33° W 03:07:37 33° W 03:12:19 10° NNW visible
31 May 7.7 00:53:30 14° E 00:53:53 14° ENE 00:56:26 10° NE visible
31 May 5.6 02:33:58 63° W 02:33:58 63° W 02:39:09 10° N visible
01 Jun 5.6 02:00:34 70° E 02:00:34 70° E 02:05:39 10° N visible
01 Jun 7.6 03:41:02 12° W 03:41:43 12° WNW 03:43:51 10° NW visible
